Temp
-8 -8 -8 -8 -8 -8 -8 -8 -8 -8 -8 -8 -8 -8 -8 -8 -7 -8 -8 -9 -8 -8 -8 -8 -8 -8 -8 -8 -8 -8 -8 -7 -7 -7 -8 -8 -8 -8 -7 -8 -7 -7 -7 -8 -7
-8 -8 -8 -8 -8 -8 -8 -8 -8 -8 -8 -8 -8 -8 -8 -8 -8 -8 -9 -9 -8 -8 -9 -9 -9 -8 -8 -8 -8 -9 -8 -7 -8 -8 -8 -8 -8 -9 -8 -8 -8 -8 -7 -7 -8
-8 -8 -8 -8 -8 -8 -8 -8 -8 -8 -8 -8 -8 -8 -8 -8 -8 -8 -9 -9 -9 -8 -9 -9 -9 -9 -8 -8 -8 -8 -8 -8 -8 -8 -9 -9 -9 -9 -8 -8 -8 -8 -8 -7 -7
-9 -9 -9 -9 -9 -9 -9 -9 -10 -9 -9 -9 -8 -8 -8 -8 -8 -9 -9 -9 -9 -9 -9 -9 -9 -9 -8 -8 -8 -8 -9 -9 -8 -9 -9 -9 -9 -9 -9 -8 -8 -9 -9 -9 -7
-9 -9 -9 -9 -9 -9 -9 -10 -10 -11 -10 -10 -10 -9 -9 -9 -9 -10 -9 -10 -10 -10 -10 -10 -9 -9 -9 -9 -9 -8 -9 -9 -9 -9 -9 -9 -9 -9 -9 -8 -8 -9 -9 -9 -9
-9 -9 -9 -9 -9 -9 -10 -11 -13 -13 -13 -13 -12 -11 -10 -9 -12 -11 -11 -10 -11 -10 -10 -10 -10 -10 -10 -10 -9 -9 -9 -10 -10 -10 -9 -10 -9 -9 -9 -9 -8 -8 -9 -9 -9
-9 -9 -9 -9 -10 -12 -14 -16 -17 -17 -17 -17 -15 -14 -12 -12 -13 -12 -11 -11 -11 -11 -11 -11 -11 -10 -9 -10 -9 -9 -9 -10 -10 -10 -9 -10 -9 -8 -8 -8 -8 -8 -9 -9 -9
-9 -9 -9 -10 -13 -16 -19 -20 -20 -21 -21 -21 -20 -19 -17 -15 -16 -13 -13 -12 -12 -12 -12 -11 -11 -11 -10 -9 -10 -9 -9 -9 -9 -9 -9 -9 -9 -8 -8 -8 -8 -8 -8 -9 -9
-9 -10 -12 -15 -18 -20 -20 -21 -21 -21 -21 -21 -21 -21 -21 -20 -20 -17 -15 -14 -14 -14 -14 -13 -11 -11 -11 -10 -10 -9 -8 -9 -10 -9 -9 -9 -9 -9 -9 -8 -8 -9 -9 -8 -8
-10 -12 -15 -18 -20 -21 -21 -21 -21 -22 -22 -22 -22 -22 -22 -22 -21 -21 -18 -17 -15 -15 -15 -14 -12 -12 -11 -10 -8 -8 -8 -9 -10 -9 -10 -9 -9 -10 -9 -9 -9 -9 -9 -9 -8
-11 -15 -18 -20 -20 -20 -20 -20 -20 -21 -22 -23 -23 -24 -23 -24 -23 -22 -21 -20 -18 -17 -15 -14 -13 -10 -10 -10 -10 -10 -10 -10 -10 -10 -10 -10 -10 -10 -10 -10 -9 -9 -9 -9 -9
-13 -17 -19 -20 -20 -19 -19 -19 -19 -20 -22 -22 -23 -24 -24 -24 -24 -23 -23 -22 -20 -18 -17 -15 -13 -13 -12 -12 -11 -10 -10 -10 -11 -11 -11 -11 -10 -11 -11 -10 -10 -9 -10 -9 -10
-15 -18 -19 -19 -18 -19 -19 -19 -19 -20 -21 -22 -23 -24 -24 -24 -24 -24 -23 -23 -21 -19 -17 -15 -14 -13 -13 -13 -12 -11 -11 -11 -12 -12 -12 -11 -11 -11 -11 -10 -10 -10 -10 -10 -9
-17 -19 -18 -18 -18 -18 -18 -19 -20 -20 -21 -21 -22 -23 -23 -24 -24 -24 -24 -23 -22 -20 -18 -17 -16 -14 -14 -13 -13 -12 -12 -13 -13 -12 -12 -12 -11 -11 -11 -11 -11 -11 -10 -10 -10
-17 -19 -18 -17 -17 -18 -19 -19 -19 -20 -21 -22 -22 -22 -22 -23 -23 -24 -24 -23 -22 -20 -19 -17 -16 -15 -15 -14 -14 -13 -14 -14 -14 -13 -12 -12 -12 -11 -11 -11 -11 -10 -11 -11 -10
-17 -18 -18 -17 -17 -18 -18 -19 -19 -20 -20 -21 -21 -22 -22 -22 -23 -23 -23 -23 -22 -22 -20 -19 -17 -17 -16 -16 -16 -16 -15 -15 -14 -13 -13 -12 -12 -11 -11 -11 -11 -10 -10 -10 -10
-17 -18 -17 -16 -17 -18 -18 -19 -19 -19 -20 -20 -21 -21 -22 -22 -22 -22 -23 -23 -22 -22 -21 -21 -18 -17 -17 -17 -17 -17 -16 -15 -14 -13 -12 -12 -11 -11 -11 -11 -11 -10 -10 -9 -9
-17 -18 -17 -16 -18 -18 -18 -19 -19 -19 -19 -20 -21 -21 -22 -22 -21 -22 -22 -22 -23 -22 -21 -20 -20 -18 -18 -18 -15 -16 -15 -14 -12 -12 -11 -12 -11 -12 -12 -11 -11 -11 -10 -10 -10
-17 -18 -17 -17 -17 -18 -19 -18 -19 -19 -19 -20 -21 -22 -21 -22 -22 -22 -22 -22 -22 -21 -21 -20 -19 -17 -17 -17 -17 -16 -15 -15 -13 -12 -12 -12 -12 -13 -13 -12 -11 -11 -11 -10 -10
-17 -18 -18 -18 -18 -18 -19 -18 -19 -19 -19 -19 -20 -21 -22 -22 -23 -22 -23 -22 -22 -21 -21 -20 -19 -18 -18 -18 -17 -16 -15 -14 -13 -13 -12 -12 -13 -13 -13 -12 -11 -11 -11 -11 -10
-17 -18 -18 -19 -18 -18 -18 -18 -18 -18 -19 -18 -18 -19 -20 -22 -22 -22 -22 -21 -20 -21 -21 -19 -19 -18 -18 -17 -16 -16 -16 -14 -13 -12 -12 -13 -13 -13 -13 -12 -12 -12 -12 -12 -11
-17 -18 -18 -18 -19 -18 -18 -18 -18 -18 -18 -18 -18 -18 -19 -20 -21 -21 -20 -20 -20 -20 -20 -18 -19 -17 -17 -17 -16 -15 -15 -14 -14 -13 -13 -13 -13 -14 -14 -14 -13 -13 -12 -12 -13
-18 -19 -19 -18 -18 -18 -19 -19 -19 -18 -18 -18 -18 -18 -19 -19 -20 -20 -19 -19 -20 -20 -19 -18 -19 -18 -18 -18 -17 -15 -14 -14 -14 -14 -14 -14 -14 -14 -15 -14 -14 -13 -13 -14 -14
-18 -19 -19 -19 -18 -18 -18 -19 -18 -18 -18 -18 -18 -18 -19 -19 -18 -19 -19 -19 -19 -19 -19 -18 -18 -17 -14 -14 -14 -14 -14 -14 -14 -14 -14 -14 -14 -15 -15 -15 -14 -14 -14 -14 -14
-19 -19 -19 -19 -19 -18 -19 -19 -18 -18 -18 -18 -18 -17 -18 -18 -18 -18 -18 -19 -19 -18 -18 -18 -18 -17 -16 -16 -15 -15 -15 -14 -14 -14 -15 -15 -15 -15 -15 -14 -14 -14 -14 -14 -14
-19 -19 -19 -19 -19 -19 -19 -18 -18 -18 -18 -18 -18 -17 -17 -18 -18 -18 -18 -18 -18 -18 -18 -17 -18 -17 -17 -17 -16 -16 -16 -16 -15 -15 -15 -15 -15 -15 -14 -14 -14 -13 -14 -14 -14
-19 -20 -20 -19 -19 -19 -19 -19 -19 -18 -17 -18 -18 -17 -17 -17 -17 -18 -17 -17 -18 -18 -17 -17 -17 -17 -17 -17 -17 -16 -16 -15 -15 -15 -15 -15 -15 -15 -14 -14 -14 -14 -14 -14 -14
Height
5795 5791 5786 5782 5777 5773 5769 5765 5762 5759 5755 5754 5751 5751 5752 5755 5757 5759 5762 5761 5763 5769 5771 5775 5778 5781 5785 5789 5794 5801 5807 5815 5822 5830 5836 5840 5843 5845 5852 5855 5862 5869 5879 5887 5890
5789 5784 5779 5774 5768 5763 5758 5753 5749 5744 5741 5739 5737 5736 5735 5738 5741 5744 5747 5748 5750 5755 5759 5763 5768 5772 5776 5781 5785 5790 5798 5808 5816 5822 5827 5830 5835 5838 5844 5847 5855 5861 5869 5879 5885
5781 5775 5770 5764 5758 5752 5746 5740 5734 5728 5723 5721 5719 5718 5719 5720 5723 5726 5730 5732 5735 5740 5745 5750 5755 5761 5766 5771 5776 5782 5790 5798 5808 5813 5817 5820 5826 5829 5835 5840 5848 5854 5859 5868 5877
5771 5764 5757 5749 5740 5733 5725 5719 5713 5708 5702 5699 5696 5696 5698 5702 5705 5706 5712 5715 5719 5725 5730 5737 5742 5748 5755 5761 5767 5773 5781 5789 5796 5801 5807 5812 5817 5821 5828 5833 5841 5847 5852 5857 5866
5760 5751 5741 5731 5721 5710 5701 5692 5684 5679 5675 5672 5669 5669 5671 5680 5690 5684 5690 5696 5701 5709 5715 5721 5729 5737 5744 5751 5757 5764 5773 5780 5786 5791 5797 5804 5809 5814 5820 5825 5833 5841 5847 5851 5857
5746 5736 5725 5710 5696 5682 5669 5656 5648 5641 5639 5639 5636 5637 5642 5657 5660 5660 5668 5674 5682 5691 5699 5706 5715 5724 5730 5739 5747 5755 5761 5768 5776 5781 5787 5795 5801 5806 5812 5817 5823 5833 5840 5845 5850
5733 5719 5703 5687 5668 5649 5633 5621 5612 5606 5604 5601 5599 5600 5609 5633 5621 5632 5643 5652 5661 5672 5681 5690 5699 5708 5718 5727 5736 5743 5750 5757 5766 5773 5780 5784 5794 5802 5803 5810 5814 5822 5831 5838 5845
5717 5700 5681 5659 5637 5620 5609 5602 5596 5592 5588 5583 5579 5574 5584 5592 5589 5602 5612 5629 5640 5652 5662 5673 5684 5694 5704 5715 5724 5731 5740 5749 5758 5765 5771 5777 5792 5793 5794 5800 5807 5813 5822 5830 5837
5700 5680 5656 5632 5616 5607 5601 5595 5588 5582 5575 5568 5563 5559 5567 5565 5563 5573 5586 5604 5617 5630 5643 5656 5669 5680 5691 5703 5714 5722 5734 5741 5751 5756 5762 5773 5779 5785 5788 5792 5799 5806 5813 5820 5828
5682 5658 5633 5617 5609 5601 5594 5585 5577 5569 5561 5551 5545 5544 5547 5547 5546 5553 5565 5580 5596 5609 5623 5639 5652 5666 5679 5692 5706 5716 5723 5731 5740 5749 5755 5763 5769 5776 5782 5786 5790 5798 5806 5812 5819
5664 5640 5623 5614 5604 5595 5586 5577 5569 5561 5550 5538 5532 5528 5528 5532 5535 5542 5550 5562 5575 5591 5609 5626 5640 5659 5675 5683 5691 5702 5714 5723 5733 5740 5746 5754 5760 5769 5775 5780 5785 5792 5799 5804 5811
5650 5631 5619 5610 5600 5591 5580 5571 5564 5555 5545 5532 5524 5520 5519 5523 5527 5534 5542 5554 5563 5579 5593 5611 5633 5647 5659 5671 5682 5693 5703 5713 5723 5731 5739 5746 5753 5761 5769 5775 5780 5784 5791 5797 5802
5640 5626 5616 5606 5596 5589 5578 5568 5560 5551 5542 5533 5524 5520 5517 5519 5522 5528 5536 5544 5554 5565 5585 5610 5627 5634 5647 5661 5673 5685 5696 5706 5717 5725 5732 5739 5745 5755 5762 5767 5771 5778 5782 5788 5793
5634 5623 5614 5604 5596 5587 5578 5567 5557 5549 5540 5535 5528 5524 5521 5519 5521 5524 5532 5540 5550 5565 5580 5593 5606 5624 5639 5652 5665 5675 5686 5696 5707 5717 5724 5732 5740 5748 5756 5762 5766 5770 5775 5780 5787
5630 5621 5611 5602 5596 5588 5578 5566 5556 5548 5539 5534 5527 5524 5521 5521 5520 5521 5527 5534 5544 5556 5566 5587 5601 5619 5631 5650 5660 5671 5680 5692 5701 5710 5718 5727 5734 5743 5750 5754 5760 5764 5769 5774 5779
5628 5618 5610 5602 5595 5588 5575 5563 5553 5545 5537 5532 5526 5523 5521 5520 5519 5519 5523 5530 5536 5546 5560 5575 5593 5608 5627 5641 5651 5663 5672 5684 5694 5705 5715 5723 5731 5737 5743 5747 5754 5758 5762 5767 5774
5625 5617 5609 5602 5596 5586 5574 5563 5555 5541 5535 5531 5525 5520 5517 5514 5515 5517 5519 5525 5533 5540 5549 5568 5583 5601 5614 5628 5639 5652 5666 5679 5690 5700 5710 5718 5725 5730 5734 5740 5746 5752 5758 5762 5767
5624 5615 5607 5601 5595 5586 5575 5567 5554 5547 5536 5529 5523 5518 5513 5508 5511 5511 5514 5520 5529 5542 5554 5567 5579 5590 5610 5625 5641 5652 5665 5675 5683 5693 5702 5710 5717 5721 5728 5734 5740 5744 5752 5758 5762
5622 5615 5606 5600 5594 5586 5579 5567 5558 5547 5538 5529 5522 5516 5512 5509 5508 5507 5510 5521 5532 5541 5551 5570 5582 5597 5614 5624 5636 5647 5658 5673 5682 5692 5699 5707 5712 5718 5724 5730 5735 5742 5746 5749 5753
5622 5615 5607 5601 5594 5587 5581 5571 5561 5553 5543 5533 5524 5518 5515 5512 5509 5509 5513 5521 5533 5545 5556 5573 5583 5597 5608 5621 5636 5651 5659 5667 5676 5686 5694 5702 5709 5713 5719 5726 5730 5735 5740 5743 5745
5620 5612 5608 5600 5594 5588 5581 5574 5567 5557 5547 5541 5533 5529 5523 5520 5519 5520 5525 5534 5541 5550 5563 5577 5586 5594 5607 5617 5632 5641 5654 5668 5676 5683 5690 5699 5706 5710 5715 5720 5726 5729 5731 5734 5736
5620 5611 5606 5601 5595 5588 5581 5572 5570 5562 5554 5547 5543 5539 5536 5534 5531 5532 5537 5541 5550 5558 5570 5577 5588 5602 5612 5622 5633 5643 5650 5661 5671 5680 5687 5696 5702 5707 5710 5714 5720 5723 5726 5728 5730
5619 5608 5603 5598 5596 5591 5584 5578 5570 5564 5558 5553 5549 5548 5545 5542 5544 5543 5545 5550 5558 5565 5573 5581 5589 5596 5608 5620 5631 5643 5653 5661 5669 5679 5688 5695 5700 5703 5707 5711 5716 5719 5721 5724 5725
5618 5608 5603 5598 5593 5588 5585 5581 5575 5568 5562 5557 5554 5550 5551 5549 5548 5550 5554 5558 5564 5569 5577 5585 5595 5608 5618 5628 5634 5639 5649 5658 5667 5677 5684 5691 5696 5701 5704 5708 5713 5715 5718 5720 5722
5615 5606 5602 5600 5596 5590 5585 5582 5575 5570 5565 5560 5558 5555 5555 5556 5555 5556 5560 5565 5571 5577 5582 5590 5597 5607 5620 5626 5633 5641 5648 5656 5666 5675 5683 5689 5693 5697 5702 5706 5710 5714 5715 5716 5718
5616 5608 5600 5599 5595 5592 5588 5583 5576 5571 5566 5562 5560 5560 5560 5562 5564 5565 5567 5572 5578 5584 5587 5593 5602 5611 5618 5627 5636 5643 5650 5658 5667 5672 5679 5684 5690 5694 5699 5704 5707 5709 5712 5714 5716
5619 5608 5602 5598 5597 5594 5590 5584 5579 5573 5570 5565 5564 5566 5567 5569 5570 5573 5577 5580 5583 5588 5593 5597 5604 5612 5621 5627 5636 5644 5651 5659 5666 5672 5677 5682 5687 5691 5696 5700 5703 5705 5707 5712 5713
Wind_Speed
38 39 40 42 43 45 47 47 49 49 50 52 52 53 53 51 50 50 50 54 55 51 48 47 44 43 44 46 49 51 56 51 46 47 50 53 52 51 49 48 46 47 46 38 37
41 44 45 46 47 48 49 51 52 55 55 57 57 59 59 58 56 52 51 53 56 55 53 49 47 46 44 46 48 51 52 53 47 43 46 50 55 54 53 51 47 46 48 46 43
41 43 45 47 50 53 55 57 58 60 62 64 63 62 62 62 60 58 54 55 56 57 55 54 51 49 48 46 46 48 48 51 50 47 45 48 54 58 57 55 50 48 46 48 45
48 51 54 56 59 62 65 66 67 67 69 69 71 73 69 64 63 62 59 58 59 58 57 56 56 52 51 48 47 47 48 48 52 50 47 48 51 59 60 60 53 49 48 47 48
55 59 63 69 73 75 75 75 75 78 78 78 77 78 78 73 63 66 64 62 61 60 59 57 57 54 53 50 49 47 48 49 49 49 49 49 50 56 59 62 59 52 50 49 48
61 66 74 80 83 88 88 85 82 76 73 79 84 85 84 79 70 71 68 67 63 62 62 59 57 57 54 53 51 49 49 51 49 50 51 49 51 53 57 58 61 59 54 52 49
72 76 84 91 95 90 85 72 61 58 60 67 73 82 88 79 78 76 76 71 68 64 63 62 60 59 59 55 54 52 51 52 51 50 51 49 51 52 55 57 58 58 60 55 51
77 84 91 90 85 71 51 37 36 34 36 35 41 51 65 74 75 82 78 75 72 67 65 65 62 60 60 58 56 56 53 51 51 52 51 50 47 53 55 56 56 55 55 58 55
85 90 89 76 59 38 39 40 40 44 47 48 47 48 42 48 55 72 79 77 74 69 65 65 65 63 61 59 57 57 52 48 48 51 51 49 48 51 55 57 55 54 53 53 55
92 91 71 48 39 42 44 46 46 43 39 41 45 47 47 47 48 50 66 70 72 70 68 67 67 64 64 62 58 59 56 50 48 49 50 50 49 48 51 54 55 54 52 51 51
99 75 46 40 43 46 44 41 38 34 35 38 37 34 36 36 40 40 48 54 63 65 68 67 68 67 61 60 59 58 56 51 47 47 49 49 50 48 47 51 53 52 51 50 48
89 56 39 44 45 43 42 35 32 32 31 26 22 12 11 15 23 30 32 34 48 56 64 67 66 63 60 58 59 57 57 54 48 46 47 48 50 45 45 48 49 49 48 47 45
72 42 42 43 43 40 38 37 35 30 24 22 20 14 10 9 13 20 24 27 39 50 57 60 63 64 60 56 57 55 53 51 45 42 45 46 48 45 45 48 48 49 50 48 50
58 41 39 41 40 38 39 37 34 25 22 16 13 9 15 10 8 19 19 24 33 42 49 58 63 61 58 57 53 54 53 50 43 47 43 43 44 42 43 42 44 46 48 49 48
49 40 36 34 37 36 41 37 41 36 24 18 18 17 8 7 8 16 22 25 32 45 55 57 60 58 56 50 49 48 48 44 44 42 42 41 40 40 39 40 42 44 44 44 45
47 40 35 34 31 38 43 46 49 39 32 26 19 18 14 13 8 10 17 29 36 43 54 58 59 59 51 49 46 42 41 40 41 40 39 36 37 37 37 39 39 41 44 45 44
44 37 31 29 35 41 38 40 46 45 30 28 17 18 13 12 16 24 18 31 40 38 55 56 59 55 50 51 49 42 39 38 36 36 38 35 35 37 36 37 38 39 40 42 42
45 36 29 28 35 34 37 42 43 38 30 25 18 21 24 13 8 14 30 30 43 36 48 50 45 57 55 50 47 46 42 41 42 40 39 37 36 35 34 36 37 37 35 35 37
46 35 27 27 28 30 36 40 43 41 36 31 21 22 10 13 6 8 17 28 42 36 45 43 36 51 48 48 47 47 45 40 37 36 35 35 37 32 30 31 33 31 32 34 35
47 33 29 25 25 30 30 39 40 34 34 36 36 31 21 11 7 10 23 34 39 31 44 45 35 47 49 48 46 40 42 42 39 38 36 34 32 25 27 29 31 30 30 30 32
52 32 27 25 24 31 30 33 32 33 30 33 30 23 21 14 17 28 29 34 30 30 47 34 36 48 50 50 47 49 42 38 37 37 37 32 28 26 25 25 23 22 20 20 22
52 30 28 26 24 29 31 35 27 28 26 27 22 13 14 17 24 26 30 30 33 35 43 24 34 42 45 46 45 46 45 43 39 36 33 29 29 27 29 26 20 17 19 19 19
51 31 26 27 18 22 26 27 29 28 23 25 16 10 21 16 12 13 18 31 31 37 41 20 37 49 43 43 47 44 40 41 39 34 26 25 27 30 28 25 22 21 24 19 21
56 34 20 27 23 24 22 24 25 26 23 20 15 8 10 10 14 19 17 34 33 35 44 41 37 38 36 34 41 46 43 40 37 32 28 24 26 30 28 26 23 23 19 19 19
57 39 18 22 21 21 26 27 24 21 27 20 13 7 12 12 19 17 26 31 33 27 26 36 39 39 34 36 41 44 42 39 36 30 28 25 31 28 22 21 24 21 15 14 20
55 38 24 21 25 20 23 25 29 27 29 19 13 7 8 14 14 25 29 33 34 29 28 32 39 34 34 30 33 36 36 31 30 30 27 28 30 28 23 18 16 22 19 21 23
55 36 26 19 21 20 21 24 31 30 25 20 13 9 10 11 16 25 29 33 30 27 20 33 31 35 32 31 31 31 30 29 26 26 26 27 27 27 24 23 17 15 20 27 25
Wind_Direction
318 313 309 305 301 297 295 290 285 279 274 268 266 264 262 259 259 257 252 250 248 248 250 248 241 239 236 234 231 227 225 224 223 219 218 217 219 223 223 228 232 234 225 215 224
312 311 309 305 300 295 292 289 288 285 279 272 267 264 263 260 259 258 251 248 248 246 248 247 244 240 238 235 234 231 227 223 224 221 218 218 218 222 224 224 226 232 234 227 224
321 317 311 305 302 298 294 290 285 282 278 275 270 265 261 260 260 257 250 246 245 245 243 244 242 239 238 235 235 234 230 223 224 223 218 217 217 222 223 225 223 227 232 236 229
324 322 319 314 310 305 301 293 285 277 271 268 266 265 260 256 256 253 250 246 242 242 242 240 241 237 235 234 234 234 230 225 221 223 219 218 217 221 224 227 224 223 228 231 236
326 324 321 317 312 305 298 291 282 273 267 263 261 260 259 255 252 249 247 244 241 239 239 237 237 237 235 231 231 231 230 226 223 221 222 218 219 220 223 227 227 223 226 230 233
329 325 321 317 314 307 300 296 292 286 275 265 261 257 253 251 251 248 243 242 239 236 236 236 234 235 231 230 229 229 228 227 223 223 221 218 219 221 224 227 229 227 226 229 233
329 325 321 318 314 308 304 301 292 282 272 262 256 255 251 248 248 244 241 238 238 235 232 233 231 230 231 229 227 227 227 226 223 224 223 220 216 222 226 227 230 228 228 229 231
330 325 322 319 314 312 313 321 317 309 301 290 284 273 259 247 245 240 239 235 234 234 230 229 229 228 228 228 226 226 227 226 223 222 224 224 217 219 226 230 230 232 230 230 230
330 328 326 322 321 332 333 323 311 304 297 294 284 277 272 263 254 241 235 234 231 228 227 226 227 225 224 225 225 225 225 226 223 223 224 223 221 219 223 230 232 233 233 233 233
334 333 329 331 340 339 331 324 318 316 308 297 285 278 270 266 260 247 236 231 228 225 222 220 222 222 223 224 226 224 223 224 222 224 224 222 223 220 223 227 233 233 235 235 235
338 338 337 345 346 339 336 332 330 327 318 306 304 290 270 264 255 246 235 230 227 223 221 219 219 222 223 222 221 222 224 223 223 220 222 224 225 221 222 228 233 236 237 237 236
344 341 346 348 346 340 338 336 334 340 335 348 340 320 287 266 250 237 231 225 224 220 216 215 217 215 217 218 219 221 220 221 218 219 220 223 226 222 222 229 233 236 238 241 242
347 346 354 350 344 344 343 337 333 334 343 346 351 345 299 281 226 227 224 218 209 210 213 214 215 213 212 213 215 216 219 221 221 220 221 222 225 227 226 227 232 234 239 240 244
349 349 355 350 351 345 344 335 344 348 346 346 355 358 360 309 252 231 211 208 206 203 203 206 209 208 211 208 210 214 213 212 214 217 217 219 226 228 229 231 236 238 241 244 244
350 354 355 353 355 354 352 355 356 356 350 331 326 338 341 340 307 231 209 196 193 197 202 204 204 206 206 207 209 210 210 212 214 213 213 217 223 224 228 230 232 240 244 248 251
351 350 353 355 355 355 0 2 359 353 354 0 357 348 314 295 270 283 216 198 187 200 195 199 199 200 204 201 201 203 205 205 210 213 214 215 221 227 226 229 231 235 241 246 249
349 348 353 358 353 355 7 11 1 6 357 355 353 338 329 302 247 241 233 197 193 193 196 194 198 195 194 195 191 191 194 195 200 205 213 213 217 225 225 228 233 235 238 244 249
351 351 360 355 357 4 12 1 8 6 4 4 349 342 331 309 262 235 223 198 189 187 191 185 196 193 191 193 196 194 197 200 206 207 209 207 213 218 221 227 231 240 243 245 250
351 351 357 359 356 3 7 9 5 7 11 13 11 4 7 329 314 235 186 182 182 180 185 167 197 186 186 190 190 189 191 195 204 210 209 207 215 218 220 227 233 237 245 252 254
352 350 348 354 354 1 355 6 11 12 8 18 26 22 12 48 77 123 154 170 172 171 174 175 179 182 179 185 186 189 190 191 196 199 203 204 211 219 223 225 233 244 251 252 252
351 343 351 348 360 352 353 4 11 10 12 20 19 29 20 63 96 123 132 154 151 159 163 174 175 175 179 180 181 176 186 195 198 200 204 202 201 214 223 234 239 246 247 249 254
351 338 347 346 351 346 352 359 8 20 12 16 35 54 66 90 124 139 135 145 152 164 161 153 169 178 171 181 178 183 179 188 195 198 201 200 205 207 217 231 238 238 241 240 241
356 342 343 342 348 356 0 5 9 11 14 11 39 90 110 98 126 140 113 138 144 162 170 139 169 172 173 174 177 181 185 188 193 199 197 193 200 206 216 228 233 238 245 247 251
357 350 344 342 344 359 3 8 15 18 25 9 17 24 27 30 126 144 149 155 163 166 164 170 170 175 171 171 177 178 186 190 193 193 189 191 191 198 212 223 233 242 250 250 254
356 350 339 354 350 360 359 1 4 16 17 7 22 36 51 82 95 129 157 164 155 159 146 171 171 172 176 175 180 183 187 191 192 185 186 189 190 198 203 218 228 241 248 241 227
356 351 348 355 355 359 357 4 15 19 20 22 43 81 98 107 125 125 133 145 146 170 167 166 171 171 170 179 184 189 190 188 189 194 190 195 198 202 201 207 231 243 236 221 228
358 350 349 342 353 353 353 18 18 10 23 19 39 105 130 130 125 140 131 142 162 169 156 163 163 169 172 169 173 182 189 188 187 188 193 197 203 213 211 216 228 224 224 221 248